Newark, NJ

8:13 AM EDT on August 17, 2017 (GMT -0400)
Newark International

Weather History for KEWR - January, 2012

Change the Weather History Date:

Friday, January 13, 2012

  Actual Average Record
Temperature  
Mean Temperature 39 °F 31 °F  
Max Temperature 50 °F 38 °F 70 °F (1932)
Min Temperature 28 °F 24 °F 0 °F (1981)
Degree Days  
Heating Degree Days 26 34  
Month to date heating degree days 348 432  
Since 1 July heating degree days 1695 2182  
Cooling Degree Days 0 0  
Month to date cooling degree days 0 0  
Year to date cooling degree days 0 0  
Moisture  
Dew Point 27 °F    
Average Humidity 67    
Maximum Humidity 93    
Minimum Humidity 41    
Precipitation  
Precipitation 0.10 in 0.12 in 1.27 in (1948)
Month to date precipitation 1.63 1.54  
Year to date precipitation 1.63 1.54  
Snow  
Snow T in 0.20 in 12.10 in (1964)
Month to date snowfall T 3.2  
Since 1 July snowfall 5.2 9.0  
Snow Depth 0.00 in    
Sea Level Pressure  
Sea Level Pressure 29.51 in    
Wind  
Wind Speed 19 mph (WSW)    
Max Wind Speed 41 mph    
Max Gust Speed 52 mph    
Visibility 8 miles    
Events Rain , Snow    
T = Trace of Precipitation, MM = Missing Value Source: NWS Daily Summary

Daily Weather History Graph

Daily Weather History Graph

Search for Another Location

Airport or City:

Trip Planner

Search our weather history database for the weather conditions in past years. The results will help you decide how hot, cold, wet, or windy it might be!

Date:

Astronomy

Jan. 13, 2012 Rise Set
Actual Time 7:19 AM EST 4:51 PM EST
Civil Twilight 6:49 AM EST 5:21 PM EST
Nautical Twilight 6:15 AM EST 5:55 PM EST
Astronomical Twilight 5:42 AM EST 6:28 PM EST
Moon 10:03 PM EST (1/13) 9:30 AM EST (1/13)
Length of Visible Light 10h 32m
Length of Day
9h 31m
Waning Gibbous, 79% of the Moon is Illuminated
Jan 13
Waning Gibbous
Jan 16
Last Quarter
Jan 23
New
Jan 30
First Quarter
Feb 7
Full

Hourly Weather History & Observations

Time (EST) Temp. Windchill Dew Point Humidity Pressure Visibility Wind Dir Wind Speed Gust Speed Precip Events Conditions
12:51 AM 45.0 °F 41.8 °F 43.0 °F 93% 29.46 in 0.5 mi East 5.8 mph - 0.00 in Rain Light Rain
1:51 AM 45.0 °F 41.8 °F 43.0 °F 93% 29.44 in 0.5 mi East 5.8 mph - 0.09 in   Overcast
2:51 AM 46.0 °F 43.1 °F 44.1 °F 93% 29.41 in 0.5 mi East 5.8 mph - N/A   Overcast
2:58 AM 46.4 °F 44.3 °F 44.6 °F 93% 29.40 in 0.5 mi East 4.6 mph - N/A   Overcast
3:51 AM 46.9 °F - 45.0 °F 93% 29.36 in 4.0 mi ESE 4.6 mph - N/A   Overcast
4:51 AM 48.0 °F - 44.1 °F 86% 29.32 in 7.0 mi Calm Calm - N/A   Overcast
5:51 AM 48.0 °F - 44.1 °F 86% 29.26 in 10.0 mi SSE 9.2 mph - N/A   Scattered Clouds
6:46 AM 46.4 °F 37.5 °F 41.0 °F 81% 29.28 in 10.0 mi West 27.6 mph 50.6 mph 0.00 in Rain Light Rain
6:51 AM 44.1 °F 34.8 °F 37.9 °F 79% 29.29 in 10.0 mi West 25.3 mph 50.6 mph 0.00 in Rain Light Rain
7:51 AM 42.1 °F 33.9 °F 34.0 °F 73% 29.35 in 10.0 mi WSW 17.3 mph 25.3 mph 0.00 in   Mostly Cloudy
8:51 AM 39.9 °F 30.8 °F 30.9 °F 70% 29.38 in 10.0 mi WSW 18.4 mph 28.8 mph 0.00 in Rain Light Rain
9:38 AM 35.6 °F 23.7 °F 30.2 °F 81% 29.42 in 1.0 mi WSW 24.2 mph 33.4 mph 0.00 in Rain , Snow Light Snow
9:45 AM 35.6 °F 23.2 °F 30.2 °F 81% 29.42 in 3.0 mi WSW 26.5 mph 34.5 mph 0.00 in Rain , Snow Light Snow
9:51 AM 37.0 °F 25.1 °F 32.0 °F 82% 29.42 in 3.0 mi WSW 26.5 mph 34.5 mph 0.01 in Rain , Snow Light Snow
10:14 AM 37.4 °F 26.1 °F 28.4 °F 70% 29.43 in 7.0 mi WSW 24.2 mph 36.8 mph 0.00 in Rain , Snow Light Snow
10:18 AM 37.4 °F 25.9 °F 28.4 °F 70% 29.43 in 10.0 mi WSW 25.3 mph 36.8 mph 0.00 in   Mostly Cloudy
10:48 AM 35.6 °F 23.4 °F 26.6 °F 70% 29.45 in 10.0 mi WSW 25.3 mph 39.1 mph 0.00 in Snow Light Snow
10:51 AM 36.0 °F 23.7 °F 26.1 °F 67% 29.45 in 10.0 mi WSW 26.5 mph 39.1 mph 0.00 in Snow Light Snow
11:51 AM 35.1 °F 22.7 °F 18.0 °F 50% 29.46 in 10.0 mi WSW 25.3 mph 42.6 mph 0.00 in   Mostly Cloudy
12:51 PM 34.0 °F 20.3 °F 16.0 °F 48% 29.49 in 10.0 mi WSW 29.9 mph 42.6 mph N/A   Mostly Cloudy
1:51 PM 34.0 °F 20.8 °F 14.0 °F 44% 29.51 in 10.0 mi West 27.6 mph 38.0 mph N/A   Overcast
2:51 PM 33.1 °F 19.1 °F 12.9 °F 43% 29.55 in 10.0 mi WSW 29.9 mph 39.1 mph N/A   Mostly Cloudy
3:51 PM 30.9 °F 14.3 °F 16.0 °F 54% 29.60 in 10.0 mi West 40.3 mph 51.8 mph 0.00 in Snow Light Snow
4:51 PM 30.0 °F 15.7 °F 9.0 °F 41% 29.66 in 10.0 mi WSW 26.5 mph 39.1 mph 0.00 in   Mostly Cloudy
5:51 PM 30.0 °F 15.7 °F 10.0 °F 43% 29.69 in 10.0 mi WSW 26.5 mph 33.4 mph N/A   Mostly Cloudy
6:51 PM 30.0 °F 15.7 °F 12.9 °F 49% 29.74 in 10.0 mi WSW 26.5 mph 39.1 mph N/A   Mostly Cloudy
7:51 PM 30.0 °F 17.2 °F 12.9 °F 49% 29.77 in 10.0 mi West 20.7 mph 27.6 mph N/A   Mostly Cloudy
8:51 PM 30.0 °F 17.5 °F 12.9 °F 49% 29.78 in 10.0 mi WSW 19.6 mph 28.8 mph N/A   Scattered Clouds
9:51 PM 30.0 °F 19.1 °F 12.9 °F 49% 29.81 in 10.0 mi West 15.0 mph 24.2 mph N/A   Scattered Clouds
10:51 PM 28.9 °F 16.5 °F 12.9 °F 51% 29.82 in 10.0 mi West 18.4 mph 25.3 mph N/A   Partly Cloudy
11:51 PM 28.9 °F 19.2 °F 12.9 °F 51% 29.83 in 10.0 mi WSW 11.5 mph 21.9 mph N/A   Partly Cloudy